| time (UTC) | temp C | wind direction | speed KPH | gust KPH | rain 1hr cm | rain 24hr cm | rain mn cm | humidity % | barometer mb |
| 20260504141248 | 17 | 293 | 0.0 | 0.0 | 0.00 | 0.53 | 0.00 | 90 | 1016.3 |
| 20260504140748 | 17 | 293 | 0.0 | 0.0 | 0.00 | 0.53 | 0.00 | 90 | 1016.2 |
| 20260504140248 | 17 | 293 | 0.0 | 0.0 | 0.00 | 0.53 | 0.00 | 90 | 1016.0 |
| 20260504140231 | 17 | 293 | 0.0 | 0.0 | 0.00 | 0.53 | 0.53 | 90 | 1016.2 |
| 20260504130732 | 17 | 293 | 0.0 | 0.0 | 0.00 | 0.53 | 0.53 | 89 | 1016.4 |
| 20260504130234 | 17 | 293 | 0.0 | 0.0 | 0.00 | 0.53 | 0.53 | 89 | 1016.5 |
| 20260504120225 | 17 | 293 | 0.0 | 0.0 | 0.00 | 0.53 | 0.53 | 86 | 1016.4 |
| 20260504110721 | 19 | 293 | 0.0 | 0.0 | 0.00 | 0.53 | 0.53 | 82 | 1015.7 |
| 20260504110220 | 19 | 293 | 0.0 | 0.0 | 0.00 | 0.53 | 0.53 | 82 | 1015.7 |
| 20260504100220 | 19 | 293 | 0.0 | 0.0 | 0.00 | 0.53 | 0.53 | 82 | 1014.7 |
| 20260504081609 | 20 | 51 | 6.4 | 27.4 | 0.00 | 0.53 | 0.53 | 84 | 1014.3 |
| 20260504081105 | 20 | 56 | 4.8 | 24.1 | 0.00 | 0.53 | 0.53 | 84 | 1014.3 |
| 20260504080559 | 20 | 57 | 4.8 | 24.1 | 0.00 | 0.53 | 0.53 | 84 | 1014.2 |
| 20260504050400 | 19 | 58 | 0.0 | 0.0 | 0.00 | 0.53 | 0.53 | 93 | 1014.2 |
| 20260504045854 | 19 | 58 | 0.0 | 0.0 | 0.00 | 0.53 | 0.53 | 93 | 1014.2 |
| 20260504045348 | 19 | 58 | 0.0 | 0.0 | 0.00 | 0.53 | 0.53 | 94 | 1014.3 |
| 20260504044842 | 18 | 58 | 0.0 | 0.0 | 0.00 | 0.53 | 0.53 | 93 | 1014.4 |
| 20260504044338 | 18 | 58 | 0.0 | 0.0 | 0.00 | 0.53 | 0.53 | 94 | 1014.3 |
| 20260504043830 | 18 | 58 | 0.0 | 0.0 | 0.00 | 0.53 | 0.53 | 94 | 1014.4 |
| 20260504043544 | 18 | 58 | 0.0 | 0.0 | 0.00 | 0.53 | 0.53 | 94 | 1014.3 |
| 20260504043039 | 18 | 58 | 0.0 | 0.0 | 0.00 | 0.53 | 0.53 | 94 | 1014.2 |
| 20260504042312 | 18 | 58 | 0.0 | 0.0 | 0.00 | 0.53 | 0.53 | 94 | 1014.3 |
| 20260504041809 | 18 | 58 | 0.0 | 0.0 | 0.00 | 0.53 | 0.53 | 94 | 1014.2 |
| 20260504041300 | 18 | 58 | 0.0 | 0.0 | 0.00 | 0.53 | 0.53 | 94 | 1014.3 |
| 20260504040754 | 18 | 58 | 0.0 | 0.0 | 0.00 | 0.53 | 0.53 | 94 | 1014.4 |
| 20260504040248 | 18 | 58 | 0.0 | 0.0 | 0.00 | 0.53 | 0.53 | 94 | 1014.6 |
| 20260504035743 | 18 | 58 | 0.0 | 0.0 | 0.00 | 0.53 | 0.53 | 94 | 1014.6 |
| 20260504035239 | 18 | 58 | 0.0 | 0.0 | 0.00 | 0.53 | 0.53 | 94 | 1014.6 |
| 20260504034731 | 18 | 58 | 0.0 | 0.0 | 0.00 | 0.53 | 0.53 | 94 | 1014.6 |
| 20260504034720 | 18 | 58 | 0.0 | 0.0 | 0.00 | 0.53 | 0.53 | 94 | 1014.7 |
| 20260504033719 | 18 | 58 | 0.0 | 0.0 | 0.00 | 0.53 | 0.53 | 94 | 1014.7 |
| 20260504033437 | 17 | 58 | 0.0 | 0.0 | 0.03 | 0.53 | 0.53 | 94 | 1014.8 |
| 20260504032708 | 17 | 58 | 0.0 | 0.0 | 0.03 | 0.53 | 0.53 | 94 | 1014.8 |
| 20260504032200 | 17 | 58 | 0.0 | 0.0 | 0.03 | 0.53 | 0.53 | 94 | 1014.9 |
| 20260504031654 | 17 | 58 | 0.0 | 0.0 | 0.03 | 0.53 | 0.53 | 94 | 1015.1 |
| 20260504031149 | 17 | 58 | 1.6 | 20.9 | 0.03 | 0.53 | 0.53 | 94 | 1015.3 |
| 20260504030643 | 17 | 58 | 1.6 | 20.9 | 0.03 | 0.53 | 0.53 | 94 | 1015.2 |
| 20260504030139 | 17 | 59 | 4.8 | 16.1 | 0.03 | 0.53 | 0.53 | 94 | 1015.3 |
| 20260504025631 | 17 | 60 | 3.2 | 24.1 | 0.03 | 0.53 | 0.53 | 94 | 1015.4 |
| 20260504025124 | 17 | 60 | 6.4 | 25.7 | 0.03 | 0.53 | 0.53 | 94 | 1015.5 |
| 20260504024618 | 17 | 59 | 11.3 | 25.7 | 0.03 | 0.53 | 0.53 | 94 | 1015.6 |
| 20260504024339 | 17 | 63 | 16.1 | 30.6 | 0.03 | 0.53 | 0.53 | 94 | 1015.7 |
| 20260504023608 | 17 | 63 | 16.1 | 35.4 | 0.05 | 0.53 | 0.53 | 94 | 1015.8 |
| 20260504023101 | 17 | 64 | 14.5 | 35.4 | 0.03 | 0.51 | 0.51 | 94 | 1015.9 |
| 20260504022554 | 17 | 76 | 14.5 | 27.4 | 0.05 | 0.51 | 0.51 | 94 | 1016.0 |
| 20260504022049 | 17 | 78 | 6.4 | 25.7 | 0.08 | 0.51 | 0.51 | 94 | 1016.2 |
| 20260504021809 | 17 | 81 | 0.0 | 0.0 | 0.13 | 0.51 | 0.51 | 94 | 1016.2 |
| 20260504021313 | 17 | 83 | 0.0 | 0.0 | 0.15 | 0.51 | 0.51 | 94 | 1016.3 |
| 20260504020532 | 17 | 96 | 0.0 | 0.0 | 0.15 | 0.51 | 0.51 | 93 | 1016.5 |
| 20260504020024 | 17 | 101 | 0.0 | 0.0 | 0.18 | 0.51 | 0.51 | 94 | 1016.6 |
| 20260504015518 | 17 | 106 | 0.0 | 0.0 | 0.18 | 0.51 | 0.51 | 94 | 1016.7 |
| 20260504015012 | 17 | 108 | 0.0 | 0.0 | 0.18 | 0.51 | 0.51 | 94 | 1016.8 |
| 20260504014508 | 17 | 108 | 0.0 | 0.0 | 0.20 | 0.51 | 0.51 | 94 | 1017.0 |
| 20260504014001 | 17 | 108 | 0.0 | 0.0 | 0.18 | 0.48 | 0.48 | 94 | 1017.2 |
| 20260504013455 | 17 | 108 | 0.0 | 0.0 | 0.20 | 0.48 | 0.48 | 94 | 1017.3 |
| 20260504012949 | 17 | 108 | 0.0 | 0.0 | 0.20 | 0.48 | 0.48 | 94 | 1017.4 |
| 20260504012443 | 17 | 108 | 0.0 | 0.0 | 0.20 | 0.46 | 0.46 | 94 | 1017.4 |
| 20260504011938 | 17 | 108 | 0.0 | 0.0 | 0.18 | 0.43 | 0.43 | 93 | 1017.5 |
| 20260504011430 | 17 | 108 | 0.0 | 0.0 | 0.13 | 0.38 | 0.38 | 93 | 1017.6 |
| 20260504010924 | 17 | 108 | 0.0 | 0.0 | 0.13 | 0.36 | 0.36 | 93 | 1017.6 |
| 20260504010418 | 17 | 108 | 0.0 | 0.0 | 0.10 | 0.33 | 0.33 | 93 | 1017.6 |
| 20260504005912 | 17 | 108 | 0.0 | 0.0 | 0.10 | 0.33 | 0.33 | 93 | 1017.6 |
| 20260504005629 | 17 | 108 | 0.0 | 0.0 | 0.10 | 0.33 | 0.33 | 93 | 1017.5 |
| 20260504004900 | 17 | 108 | 0.0 | 0.0 | 0.13 | 0.33 | 0.33 | 93 | 1017.5 |
| 20260504004354 | 17 | 108 | 0.0 | 0.0 | 0.13 | 0.30 | 0.30 | 93 | 1017.5 |
| 20260504004108 | 17 | 108 | 0.0 | 0.0 | 0.10 | 0.28 | 0.28 | 93 | 1017.6 |
| 20260504003342 | 17 | 108 | 0.0 | 0.0 | 0.13 | 0.28 | 0.28 | 93 | 1017.6 |
| 20260504002838 | 17 | 108 | 0.0 | 0.0 | 0.15 | 0.28 | 0.28 | 93 | 1017.5 |
| 20260504002331 | 17 | 108 | 0.0 | 0.0 | 0.15 | 0.25 | 0.25 | 93 | 1017.5 |
| 20260504001824 | 17 | 46 | 0.0 | 0.0 | 0.15 | 0.25 | 0.25 | 93 | 1017.5 |
| 20260504001319 | 17 | 46 | 0.0 | 0.0 | 0.18 | 0.25 | 0.25 | 93 | 1017.5 |
| 20260504000812 | 17 | 46 | 0.0 | 0.0 | 0.18 | 0.23 | 0.23 | 93 | 1017.6 |
| 20260504000308 | 17 | 46 | 0.0 | 0.0 | 0.20 | 0.23 | 0.23 | 93 | 1017.5 |
| 20260503235801 | 17 | 46 | 0.0 | 0.0 | 0.20 | 0.23 | 0.23 | 93 | 1017.6 |
| 20260503235254 | 16 | 46 | 0.0 | 0.0 | 0.18 | 0.20 | 0.20 | 93 | 1017.3 |
| 20260503235010 | 16 | 46 | 0.0 | 0.0 | 0.18 | 0.20 | 0.20 | 93 | 1017.5 |
| 20260503234503 | 16 | 46 | 0.0 | 0.0 | 0.15 | 0.18 | 0.18 | 93 | 1017.6 |
| 20260503233738 | 16 | 46 | 0.0 | 0.0 | 0.15 | 0.18 | 0.18 | 93 | 1017.7 |
| 20260503233230 | 16 | 46 | 0.0 | 0.0 | 0.13 | 0.15 | 0.15 | 93 | 1017.6 |
| 20260503232952 | 16 | 46 | 0.0 | 0.0 | 0.10 | 0.13 | 0.13 | 93 | 1017.5 |
| 20260503232218 | 16 | 46 | 0.0 | 0.0 | 0.08 | 0.10 | 0.10 | 93 | 1017.6 |
| 20260503231712 | 16 | 46 | 0.0 | 0.0 | 0.08 | 0.10 | 0.10 | 93 | 1017.6 |
| 20260503231208 | 16 | 46 | 0.0 | 0.0 | 0.05 | 0.08 | 0.08 | 93 | 1017.8 |
| 20260503230700 | 16 | 46 | 0.0 | 0.0 | 0.03 | 0.05 | 0.05 | 93 | 1017.8 |
| 20260503230154 | 16 | 46 | 0.0 | 0.0 | 0.00 | 0.03 | 0.03 | 93 | 1017.9 |
| 20260503225648 | 16 | 46 | 0.0 | 0.0 | 0.00 | 0.03 | 0.03 | 93 | 1018.1 |
| 20260503225142 | 16 | 46 | 0.0 | 0.0 | 0.00 | 0.03 | 0.03 | 93 | 1018.1 |
| 20260503224638 | 16 | 46 | 0.0 | 0.0 | 0.00 | 0.03 | 0.03 | 93 | 1018.0 |
| 20260503224130 | 16 | 46 | 0.0 | 0.0 | 0.00 | 0.03 | 0.03 | 93 | 1017.9 |
| 20260503223625 | 16 | 46 | 0.0 | 0.0 | 0.00 | 0.03 | 0.03 | 93 | 1017.8 |
| 20260503223118 | 16 | 46 | 0.0 | 0.0 | 0.00 | 0.03 | 0.03 | 93 | 1017.6 |
| 20260503222612 | 16 | 46 | 0.0 | 0.0 | 0.00 | 0.03 | 0.03 | 93 | 1017.4 |
| 20260503222110 | 17 | 46 | 0.0 | 0.0 | 0.00 | 0.03 | 0.03 | 93 | 1017.3 |
| 20260503221600 | 17 | 46 | 0.0 | 0.0 | 0.03 | 0.03 | 0.03 | 93 | 1017.2 |
| 20260503221054 | 17 | 46 | 0.0 | 0.0 | 0.03 | 0.03 | 0.03 | 93 | 1017.0 |
| 20260503220549 | 17 | 46 | 0.0 | 0.0 | 0.03 | 0.03 | 0.03 | 93 | 1016.8 |
| 20260503220042 | 17 | 46 | 0.0 | 0.0 | 0.03 | 0.03 | 0.03 | 93 | 1016.9 |
| 20260503215538 | 16 | 46 | 0.0 | 0.0 | 0.03 | 0.03 | 0.03 | 93 | 1016.8 |
| 20260503215030 | 16 | 46 | 0.0 | 0.0 | 0.03 | 0.03 | 0.03 | 93 | 1016.8 |
| 20260503214531 | 16 | 46 | 0.0 | 0.0 | 0.03 | 0.03 | 0.03 | 93 | 1016.7 |
| 20260503214248 | 16 | 46 | 0.0 | 0.0 | 0.03 | 0.03 | 0.03 | 93 | 1016.7 |
| 20260503213527 | 16 | 46 | 0.0 | 0.0 | 0.03 | 0.03 | 0.03 | 93 | 1016.7 |
| 20260503213029 | 16 | 46 | 0.0 | 0.0 | 0.03 | 0.03 | 0.03 | 93 | 1016.8 |
| 20260503212752 | 16 | 46 | 0.0 | 0.0 | 0.03 | 0.03 | 0.03 | 93 | 1016.7 |
| 20260503212023 | 16 | 46 | 0.0 | 0.0 | 0.03 | 0.03 | 0.03 | 93 | 1016.7 |
| 20260503211753 | 16 | 46 | 0.0 | 0.0 | 0.00 | 0.00 | 0.00 | 93 | 1016.6 |
| 20260503211019 | 16 | 46 | 0.0 | 0.0 | 0.00 | 0.00 | 0.00 | 93 | 1016.5 |
| 20260503210518 | 16 | 46 | 0.0 | 0.0 | 0.00 | 0.00 | 0.00 | 93 | 1016.4 |
| 20260503210019 | 16 | 46 | 0.0 | 0.0 | 0.00 | 0.00 | 0.00 | 93 | 1016.3 |
| 20260503205517 | 16 | 46 | 0.0 | 0.0 | 0.00 | 0.00 | 0.00 | 92 | 1016.2 |
| 20260503205017 | 16 | 46 | 0.0 | 0.0 | 0.00 | 0.00 | 0.00 | 92 | 1016.3 |
| 20260503204514 | 16 | 46 | 0.0 | 0.0 | 0.00 | 0.00 | 0.00 | 92 | 1016.2 |
| 20260503204014 | 16 | 46 | 0.0 | 0.0 | 0.00 | 0.00 | 0.00 | 92 | 1016.2 |
| 20260503203513 | 16 | 46 | 0.0 | 0.0 | 0.00 | 0.00 | 0.00 | 92 | 1016.2 |
| 20260503203013 | 16 | 46 | 0.0 | 0.0 | 0.00 | 0.00 | 0.00 | 92 | 1016.1 |
| 20260503202510 | 16 | 46 | 0.0 | 0.0 | 0.00 | 0.00 | 0.00 | 92 | 1016.0 |
| 20260503202009 | 16 | 46 | 0.0 | 0.0 | 0.00 | 0.00 | 0.00 | 92 | 1016.1 |
| 20260503201507 | 16 | 46 | 0.0 | 0.0 | 0.00 | 0.00 | 0.00 | 92 | 1016.1 |
| 20260503201005 | 16 | 46 | 0.0 | 0.0 | 0.00 | 0.00 | 0.00 | 92 | 1016.0 |
| 20260503200502 | 16 | 46 | 0.0 | 0.0 | 0.00 | 0.00 | 0.00 | 92 | 1015.9 |
| 20260503195959 | 16 | 46 | 0.0 | 0.0 | 0.00 | 0.00 | 0.00 | 92 | 1016.0 |
| 20260503195451 | 16 | 46 | 0.0 | 0.0 | 0.00 | 0.00 | 0.00 | 92 | 1016.0 |
| 20260503194945 | 16 | 46 | 0.0 | 0.0 | 0.00 | 0.00 | 0.00 | 92 | 1016.0 |
| 20260503194700 | 16 | 46 | 0.0 | 0.0 | 0.00 | 0.00 | 0.00 | 92 | 1016.0 |
| 20260503193932 | 16 | 46 | 0.0 | 0.0 | 0.00 | 0.00 | 0.00 | 92 | 1015.9 |
| 20260503193429 | 16 | 46 | 0.0 | 0.0 | 0.00 | 0.00 | 0.00 | 92 | 1015.8 |
| 20260503192920 | 16 | 46 | 0.0 | 0.0 | 0.00 | 0.00 | 0.00 | 92 | 1015.8 |
| 20260503192414 | 16 | 46 | 0.0 | 0.0 | 0.00 | 0.00 | 0.00 | 92 | 1015.8 |
| 20260503191909 | 16 | 46 | 0.0 | 0.0 | 0.00 | 0.00 | 0.00 | 92 | 1015.8 |
| 20260503191630 | 16 | 46 | 0.0 | 0.0 | 0.00 | 0.00 | 0.00 | 92 | 1015.8 |
| 20260503190858 | 16 | 46 | 0.0 | 0.0 | 0.00 | 0.00 | 0.00 | 92 | 1015.8 |
| 20260503190350 | 16 | 46 | 0.0 | 0.0 | 0.00 | 0.00 | 0.00 | 92 | 1015.8 |
| 20260503185844 | 16 | 46 | 0.0 | 0.0 | 0.00 | 0.00 | 0.00 | 92 | 1015.8 |
| 20260503185831 | 16 | 46 | 0.0 | 0.0 | 0.00 | 0.00 | 0.00 | 92 | 1015.8 |
| 20260503184832 | 16 | 46 | 0.0 | 0.0 | 0.00 | 0.00 | 0.00 | 92 | 1015.8 |
| 20260503184333 | 16 | 46 | 0.0 | 0.0 | 0.00 | 0.00 | 0.00 | 92 | 1015.8 |
| 20260503183833 | 16 | 46 | 0.0 | 0.0 | 0.00 | 0.00 | 0.00 | 92 | 1015.8 |
| 20260503183331 | 16 | 46 | 0.0 | 0.0 | 0.00 | 0.00 | 0.00 | 92 | 1015.8 |
| 20260503182831 | 16 | 46 | 0.0 | 0.0 | 0.00 | 0.00 | 0.00 | 92 | 1015.8 |
| 20260503182333 | 16 | 46 | 0.0 | 0.0 | 0.00 | 0.00 | 0.00 | 92 | 1015.8 |
| 20260503181832 | 16 | 46 | 0.0 | 0.0 | 0.00 | 0.00 | 0.00 | 92 | 1015.8 |
| 20260503181819 | 16 | 46 | 0.0 | 0.0 | 0.00 | 0.00 | 0.00 | 92 | 1015.7 |
| 20260503180831 | 16 | 46 | 0.0 | 0.0 | 0.00 | 0.00 | 0.00 | 92 | 1015.8 |
| 20260503180333 | 16 | 46 | 0.0 | 0.0 | 0.00 | 0.00 | 0.00 | 91 | 1015.8 |
| 20260503175830 | 16 | 46 | 0.0 | 0.0 | 0.00 | 0.00 | 0.00 | 91 | 1015.8 |
| 20260503175329 | 16 | 46 | 0.0 | 0.0 | 0.00 | 0.00 | 0.00 | 91 | 1015.7 |
| 20260503174826 | 16 | 46 | 0.0 | 0.0 | 0.00 | 0.00 | 0.00 | 91 | 1015.7 |
| 20260503174322 | 16 | 46 | 0.0 | 0.0 | 0.00 | 0.00 | 0.00 | 91 | 1015.7 |
| 20260503173823 | 15 | 46 | 0.0 | 0.0 | 0.00 | 0.00 | 0.00 | 91 | 1015.7 |
| 20260503173321 | 15 | 46 | 0.0 | 0.0 | 0.00 | 0.00 | 0.00 | 91 | 1015.7 |
| 20260503172821 | 15 | 46 | 0.0 | 0.0 | 0.00 | 0.00 | 0.00 | 91 | 1015.7 |
| 20260503172320 | 15 | 46 | 0.0 | 0.0 | 0.00 | 0.00 | 0.00 | 91 | 1015.8 |
| 20260503171821 | 15 | 46 | 0.0 | 0.0 | 0.00 | 0.00 | 0.00 | 91 | 1015.8 |
| 20260503171320 | 15 | 46 | 0.0 | 0.0 | 0.00 | 0.00 | 0.00 | 91 | 1015.9 |
| 20260503170820 | 15 | 46 | 0.0 | 0.0 | 0.00 | 0.00 | 0.00 | 91 | 1015.9 |
| 20260503170317 | 15 | 46 | 0.0 | 0.0 | 0.00 | 0.00 | 0.00 | 91 | 1016.0 |
| 20260503150801 | 16 | 46 | 0.0 | 0.0 | 0.00 | 0.00 | 0.00 | 89 | 1016.9 |
| 20260503150300 | 16 | 46 | 0.0 | 0.0 | 0.00 | 0.00 | 0.00 | 89 | 1016.9 |